Shelbyville, IN

7:59 PM EST on December 13, 2017 (GMT -0500)
Shelbyville Municipal

Weather History for KGEZ - June, 2013

Change the Weather History Date:

Tuesday, June 25, 2013

  Actual Average Record
Temperature  
Mean Temperature 81 °F 74 °F  
Max Temperature 92 °F 84 °F 92 °F (2013)
Min Temperature 70 °F 63 °F 55 °F (2004)
Degree Days  
Heating Degree Days 0 0  
Month to date heating degree days 5 11  
Since 1 June heating degree days 5 11  
Since 1 July heating degree days 5076 5406  
Cooling Degree Days 16 9  
Month to date cooling degree days 217 165  
Year to date cooling degree days 385 246  
Since 1 June cooling degree days 217 165  
Growing Degree Days 30 (Base 50)    
Moisture  
Dew Point 70 °F    
Average Humidity 71    
Maximum Humidity 90    
Minimum Humidity 52    
Precipitation  
Precipitation 0.06 in 0.16 in 0.78 in (2015)
Month to date precipitation 2.00 3.76  
Year to date precipitation 14.31 21.54  
Sea Level Pressure  
Sea Level Pressure 29.94 in    
Wind  
Wind Speed 9 mph (SW)    
Max Wind Speed 21 mph    
Max Gust Speed 29 mph    
Visibility 8 miles    
Events Rain , Thunderstorm    
T = Trace of Precipitation, MM = Missing Value Source: NWS Daily Summary

Daily Weather History Graph

Daily Weather History Graph

Search for Another Location

Airport or City:

Trip Planner

Search our weather history database for the weather conditions in past years. The results will help you decide how hot, cold, wet, or windy it might be!

Date:

Astronomy

Jun. 25, 2013 Rise Set
Actual Time 6:17 AM EDT 9:14 PM EDT
Civil Twilight 5:44 AM EDT 9:47 PM EDT
Nautical Twilight 5:03 AM EDT 10:28 PM EDT
Astronomical Twilight 4:15 AM EDT 11:16 PM EDT
Moon 11:00 PM EDT (6/25) 8:55 AM EDT (6/25)
Length of Visible Light 16h 02m
Length of Day
14h 57m
Waning Gibbous, 93% of the Moon is Illuminated
Jun 25
Waning Gibbous
Jun 30
Last Quarter
Jul 8
New
Jul 15
First Quarter
Jul 22
Full

Hourly Weather History & Observations

Time (EDT) Temp. Heat Index Dew Point Humidity Pressure Visibility Wind Dir Wind Speed Gust Speed Precip Events Conditions
12:53 AM 73.0 °F - 69.1 °F 87% 30.01 in 6.0 mi South 13.8 mph - N/A   Clear
1:53 AM 73.0 °F - 69.1 °F 87% 29.99 in 6.0 mi South 10.4 mph - N/A   Clear
2:53 AM 72.0 °F - 68.0 °F 87% 29.99 in 5.0 mi South 8.1 mph - N/A   Clear
3:53 AM 71.1 °F - 68.0 °F 90% 30.00 in 4.0 mi South 8.1 mph - N/A   Clear
4:53 AM 71.1 °F - 66.9 °F 87% 30.01 in 4.0 mi South 6.9 mph - N/A   Clear
5:53 AM 70.0 °F - 66.9 °F 90% 30.01 in 5.0 mi South 5.8 mph - N/A   Clear
6:53 AM 71.1 °F - 66.9 °F 87% 30.01 in 4.0 mi South 5.8 mph - N/A   Clear
7:53 AM 72.0 °F - 68.0 °F 87% 30.01 in 5.0 mi South 9.2 mph - N/A   Clear
8:53 AM 75.0 °F - 69.1 °F 82% 30.00 in 7.0 mi South 9.2 mph - N/A   Clear
9:53 AM 79.0 °F - 71.1 °F 77% 29.99 in 10.0 mi SSW 8.1 mph - N/A   Clear
10:53 AM 84.0 °F 90.2 °F 73.0 °F 69% 29.99 in 10.0 mi SW 9.2 mph - N/A   Clear
11:53 AM 84.9 °F 90.7 °F 72.0 °F 65% 30.00 in 10.0 mi SW 10.4 mph - N/A   Clear
12:53 PM 87.1 °F 94.5 °F 73.0 °F 63% 30.00 in 10.0 mi West 8.1 mph - N/A   Partly Cloudy
1:53 PM 89.1 °F 96.0 °F 72.0 °F 57% 29.97 in 10.0 mi SW 15.0 mph - N/A   Scattered Clouds
2:53 PM 88.0 °F 93.8 °F 71.1 °F 57% 29.95 in 10.0 mi SW 12.7 mph - N/A   Scattered Clouds
3:53 PM 91.9 °F 98.4 °F 71.1 °F 50% 29.93 in 10.0 mi WSW 13.8 mph 23.0 mph N/A   Scattered Clouds
4:53 PM 90.0 °F 96.4 °F 71.1 °F 54% 29.91 in 10.0 mi SW 12.7 mph - N/A   Partly Cloudy
5:53 PM 90.0 °F 96.4 °F 71.1 °F 54% 29.89 in 10.0 mi SSW 16.1 mph - N/A   Clear
6:53 PM 88.0 °F 94.7 °F 72.0 °F 59% 29.88 in 10.0 mi SSW 11.5 mph - N/A Thunderstorm Clear
7:07 PM 87.8 °F 93.8 °F 71.6 °F 58% 29.89 in 10.0 mi SSW 13.8 mph 19.6 mph N/A   Clear
7:14 PM 87.8 °F 93.8 °F 71.6 °F 58% 29.89 in 9.0 mi SSW 11.5 mph - N/A Thunderstorm Clear
7:53 PM 84.9 °F 91.4 °F 73.0 °F 67% 29.87 in 9.0 mi WNW 3.5 mph - 0.00 in   Scattered Clouds
8:46 PM 84.2 °F 90.9 °F 73.4 °F 70% 29.89 in 10.0 mi SW 6.9 mph - N/A Thunderstorm Clear
8:53 PM 82.9 °F 88.8 °F 73.0 °F 72% 29.87 in 9.0 mi SSW 8.1 mph - N/A Thunderstorm Clear
9:36 PM 82.4 °F 88.2 °F 73.4 °F 74% 29.88 in 10.0 mi SSW 9.2 mph - N/A   Partly Cloudy
9:53 PM 82.9 °F 88.8 °F 73.0 °F 72% 29.86 in 10.0 mi SSW 8.1 mph - N/A   Clear
10:53 PM 82.0 °F 87.4 °F 73.0 °F 74% 29.87 in 10.0 mi SW 9.2 mph - N/A   Clear
11:19 PM 77.0 °F - 66.2 °F 69% 29.95 in 7.0 mi West 15.0 mph 21.9 mph 0.02 in Rain Rain
11:53 PM 71.1 °F - 64.9 °F 81% 29.89 in 8.0 mi NNW 4.6 mph - 0.06 in Rain Light Rain